Home   Weather   Kairouan   Past weeks

Flag for Tunisia Past Weather in Kairouan, Tunisia — Yesterday and Last 2 Weeks

Now
79 °F

Sunny.


Feels Like: 79 °F
Forecast: 70 / 92 °F
Wind: No wind

Location: Kairouan Airport

Current Time: Aug 21, 2017 at 7:53:49 am

Latest Report: Aug 21, 2017 at 7:00 am


Visibility: 10 mi

Pressure: 30.01 "Hg

Humidity: 34%

Dew Point: 48 °F

Location of KairouanLocation

Past Weather in Kairouan — Graph

°F

Kairouan Temperature Yesterday

Maximum temperature yesterday: 102 °F (at 4:00 pm)
Minimum temperature yesterday: 79 °F (at 4:00 am)
Average temperature yesterday: 89 °F

High & Low Weather Summary for the Past Weeks

 TemperatureHumidityPressure
High115 °F (Aug 10, 2:00 pm)84% (Aug 8, 3:00 am)30.12 "Hg (Aug 8, 3:00 am)
Low75 °F (Aug 12, 2:00 am)9% (Aug 6, 3:00 pm)29.80 "Hg (Aug 8, 4:00 pm)
Average91 °F38%29.97 "Hg
* Reported Aug 6 6:00 am — Aug 21 6:00 am, Kairouan. Weather by CustomWeather, © 2017

Note: Actual official high and low records may vary slightly from our data, if they occured in-between our weather recording intervals... More about our weather records

Advertising

Kairouan Weather History for the Previous 24 Hours

Scroll right to see more
 ConditionsComfort  
Time TempWeatherWind HumidityBarometerVisibility
6:00 am
Mon, Aug 21
77 °FPleasantly warm.No wind36%29.98 "HgN/A
5:00 am77 °FPleasantly warm.No wind32%29.98 "HgN/A
4:00 am77 °FPleasantly warm.No wind30%29.98 "HgN/A
3:00 am79 °FPleasantly warm.No wind30%29.98 "HgN/A
2:00 am79 °FPleasantly warm.1 mph30%30.01 "HgN/A
1:00 am81 °FPleasantly warm.No wind24%30.01 "HgN/A
12:00 am81 °FPleasantly warm.3 mph23%30.01 "HgN/A
11:00 pm
Sun, Aug 20
82 °FPleasantly warm.No wind19%30.01 "HgN/A
10:00 pm86 °FPleasantly warm.5 mph18%30.01 "HgN/A
9:00 pm88 °FPleasantly warm.1 mph29%30.01 "HgN/A
8:00 pm90 °FClear.No wind33%29.98 "Hg10 mi
7:00 pm93 °FSunny.5 mph30%N/A10 mi
6:00 pm97 °FSunny.5 mph30%29.92 "Hg10 mi
5:00 pm100 °FSunny.5 mph25%29.92 "Hg10 mi
4:00 pm102 °FSunny.5 mph21%29.92 "Hg10 mi
3:00 pm100 °FPassing clouds.2 mph22%29.95 "HgN/A
2:00 pm100 °FPassing clouds.7 mph21%29.95 "HgN/A
1:00 pm99 °FPassing clouds.5 mph22%29.98 "HgN/A
12:00 pm97 °FSunny.5 mph23%30.01 "Hg10 mi
11:00 am93 °FSunny.2 mph26%30.01 "Hg10 mi
10:00 am90 °FPassing clouds.6 mph33%30.01 "HgN/A
9:00 am90 °FSunny.No wind33%30.01 "Hg10 mi
8:00 am86 °FClear.No wind55%30.01 "Hg5 mi
7:00 am79 °FClear.No wind74%30.01 "Hg5 mi
Weather by CustomWeather, © 2017

See weather overviewHow to use our weather pages